This is the latest recevied weather packets stored in our database for station/object KB7STN. If no packets are shown the sender has not sent any weather packets the latest 10 day(s).
| Time | Temp. | Humidity | Pressure | Rain* | Wind** | Luminosity | Snow |
|---|---|---|---|---|---|---|---|
| 1788204624 | 26.11° C | 41% | 1020 hPa | 0 mm | - | - | - |
| 1788204324 | 26.11° C | 39% | 1020.1 hPa | 0 mm | - | - | - |
| 1788204024 | 26.11° C | 39% | 1020.2 hPa | 0 mm | - | - | - |
| 1788203724 | 26.11° C | 40% | 1020.2 hPa | 0 mm | - | - | - |
| 1788203424 | 26.67° C | 39% | 1020.2 hPa | 0 mm | - | - | - |
| 1788203124 | 26.67° C | 39% | 1020.3 hPa | 0 mm | - | - | - |
| 1788202824 | 26.67° C | 38% | 1020.4 hPa | 0 mm | - | - | - |
| 1788202524 | 27.22° C | 38% | 1020.4 hPa | 0 mm | - | - | - |
| 1788202224 | 27.22° C | 40% | 1020.5 hPa | 0 mm | - | - | - |
| 1788201924 | 26.67° C | 39% | 1020.6 hPa | 0 mm | - | - | - |
| 1788201624 | 26.67° C | 39% | 1020.7 hPa | 0 mm | - | - | - |
| 1788201324 | 26.11° C | 39% | 1020.8 hPa | 0 mm | - | - | - |
| 1788201024 | 26.11° C | 40% | 1020.8 hPa | 0 mm | - | - | - |
| 1788200724 | 26.11° C | 40% | 1020.9 hPa | 0 mm | - | - | - |
| 1788200427 | 26.11° C | 41% | 1020.9 hPa | 0 mm | - | - | - |
| 1788200124 | 26.11° C | 42% | 1021.2 hPa | 0 mm | - | - | - |
| 1788199824 | 26.11° C | 42% | 1021.3 hPa | 0 mm | - | - | - |
| 1788199524 | 25.56° C | 42% | 1021.2 hPa | 0 mm | - | - | - |
| 1788199224 | 25° C | 43% | 1021.3 hPa | 0 mm | - | - | - |
| 1788198924 | 25° C | 42% | 1021.3 hPa | 0 mm | - | - | - |
| 1788198624 | 25.56° C | 39% | 1021.3 hPa | 0 mm | - | - | - |
| 1788198324 | 25.56° C | 42% | 1021.3 hPa | 0 mm | - | - | - |
| 1788198024 | 25.56° C | 42% | 1021.3 hPa | 0 mm | - | - | - |
| 1788197724 | 25° C | 43% | 1021.3 hPa | 0 mm | - | - | - |
| 1788197424 | 25° C | 44% | 1021.3 hPa | 0 mm | - | - | - |
* Rain latest hour (hover to see other rain measurements)
** Current wind speed in m/s (hover to see current wind gust speed)